FW7092 Weather Reports


Display with metric or nautical units.
time (UTC)temp
F
wind
direction
speed
MPH
gust
MPH
rain 1hr
in
rain 24hr
in
rain mn
in
humidity
%
barometer
mb
20260502221656 47 280 2.0 3.0 0.00 0.00 0.00 51 1019.5
20260502221153 48 253 4.0 6.0 0.00 0.00 0.00 49 1019.5
20260502220649 48 332 3.0 5.0 0.00 0.00 0.00 47 1019.6
20260502220145 48 255 1.0 2.0 0.00 0.00 0.00 49 1019.7
20260502215643 48 263 2.0 3.0 0.00 0.00 0.00 50 1019.5
20260502215139 48 354 4.0 7.0 0.00 0.00 0.00 48 1019.6
20260502214637 47 287 4.0 6.0 0.00 0.00 0.00 50 1019.5
20260502214134 48 315 3.0 7.0 0.00 0.00 0.00 53 1019.8
20260502213631 48 269 2.0 5.0 0.00 0.00 0.00 49 1019.5
20260502213128 48 324 4.0 6.0 0.00 0.00 0.00 50 1019.5
20260502212627 48 358 7.0 9.0 0.00 0.00 0.00 50 1019.4
20260502212125 48 264 3.0 7.0 0.00 0.00 0.00 48 1019.8
20260502211620 48 321 3.0 5.0 0.00 0.00 0.00 55 1019.5
20260502211118 47 304 2.0 7.0 0.00 0.00 0.00 49 1019.6
20260502210615 48 276 6.0 8.0 0.00 0.00 0.00 49 1019.6
20260502210112 48 343 2.0 3.0 0.00 0.00 0.00 48 1019.6
20260502205608 48 281 3.0 6.0 0.00 0.00 0.00 53 1019.6
20260502205106 48 241 4.0 6.0 0.00 0.00 0.00 49 1019.8
20260502204602 47 290 2.0 6.0 0.00 0.00 0.00 50 1019.7
20260502204100 47 261 6.0 7.0 0.00 0.00 0.00 50 1019.6
20260502203556 47 332 3.0 7.0 0.00 0.00 0.00 52 1019.6
20260502203054 48 270 1.0 6.0 0.00 0.00 0.00 49 1019.7
20260502202549 48 218 4.0 5.0 0.00 0.00 0.00 50 1019.6
20260502202048 48 250 1.0 6.0 0.00 0.00 0.00 48 1019.9
20260502201544 48 333 2.0 7.0 0.00 0.00 0.00 49 1019.7
20260502201040 47 23 2.0 6.0 0.00 0.00 0.00 50 1020.0
20260502200536 49 236 1.0 3.0 0.00 0.00 0.00 51 1020.2
20260502200034 48 2 2.0 3.0 0.00 0.00 0.00 48 1020.1
20260502195531 47 274 3.0 8.0 0.00 0.00 0.00 49 1020.1
20260502195021 48 269 3.0 8.0 0.00 0.00 0.00 50 1020.2
20260502194519 48 329 3.0 6.0 0.00 0.00 0.00 48 1020.0
20260502194015 48 260 5.0 8.0 0.00 0.00 0.00 52 1020.0
20260502193512 48 319 3.0 9.0 0.00 0.00 0.00 49 1020.1
20260502193009 47 316 3.0 5.0 0.00 0.00 0.00 51 1020.0
20260502192505 47 279 7.0 11.0 0.00 0.00 0.00 54 1020.2
20260502192002 48 248 5.0 8.0 0.00 0.00 0.00 53 1020.1
20260502191459 48 264 5.0 8.0 0.00 0.00 0.00 52 1020.2
20260502190956 48 237 0.0 2.0 0.00 0.00 0.00 50 1020.3
20260502190454 47 216 1.0 5.0 0.00 0.00 0.00 52 1020.5
20260502185950 47 348 3.0 8.0 0.00 0.00 0.00 53 1020.4
20260502185445 46 291 2.0 6.0 0.00 0.00 0.00 55 1020.5
20260502184942 46 271 5.0 8.0 0.00 0.00 0.00 53 1020.4
20260502184438 46 265 6.0 10.0 0.00 0.00 0.00 55 1020.6
20260502183934 46 263 3.0 10.0 0.00 0.00 0.00 59 1020.4
20260502183431 46 264 3.0 7.0 0.00 0.00 0.00 57 1020.6
20260502182926 47 259 2.0 9.0 0.00 0.00 0.00 56 1020.6
20260502182422 47 278 4.0 7.0 0.00 0.00 0.00 53 1020.5
20260502181918 47 331 2.0 3.0 0.00 0.00 0.00 53 1020.6
20260502181417 47 284 3.0 5.0 0.00 0.00 0.00 53 1020.8
20260502180915 46 249 5.0 6.0 0.00 0.00 0.00 57 1020.8
20260502180412 46 296 3.0 3.0 0.00 0.00 0.00 60 1020.9
20260502170330 46 281 2.0 6.0 0.00 0.00 0.00 61 1021.2
20260502164318 45 273 1.0 2.0 0.00 0.00 0.00 57 1021.3
20260502163814 45 206 2.0 3.0 0.00 0.00 0.00 53 1021.3
20260502163310 45 184 1.0 2.0 0.00 0.00 0.00 55 1021.5
20260502162808 44 312 1.0 3.0 0.00 0.00 0.00 56 1021.5
20260502162305 45 355 2.0 3.0 0.00 0.00 0.00 58 1021.5
20260502161801 44 247 0.0 2.0 0.00 0.00 0.00 59 1021.5
20260502161257 44 329 2.0 3.0 0.00 0.00 0.00 57 1021.5
20260502160755 44 280 0.0 3.0 0.00 0.00 0.00 58 1021.6
20260502160254 44 168 3.0 5.0 0.00 0.00 0.00 59 1021.5
20260502152218 43 331 1.0 6.0 0.00 0.00 0.00 62 1021.4
20260502151716 43 307 3.0 5.0 0.00 0.00 0.00 63 1021.3
20260502151212 44 277 1.0 3.0 0.00 0.00 0.00 62 1021.2
20260502150709 44 251 1.0 3.0 0.00 0.00 0.00 61 1021.4
20260502150206 45 313 1.0 3.0 0.00 0.00 0.00 59 1021.1
20260502140130 43 152 0.0 2.0 0.00 0.00 0.00 69 1020.9
20260502130554 43 278 2.0 6.0 0.00 0.00 0.00 74 1020.6
20260502123537 42 342 3.0 3.0 0.00 0.00 0.00 78 1020.6
20260502123034 41 272 3.0 5.0 0.00 0.00 0.00 79 1020.6
20260502122531 41 39 1.0 3.0 0.00 0.00 0.00 78 1020.6
20260502122028 41 349 2.0 5.0 0.00 0.00 0.00 83 1020.8
20260502121526 41 330 2.0 3.0 0.00 0.00 0.00 83 1020.6
20260502121023 41 319 2.0 5.0 0.00 0.00 0.00 83 1020.9
20260502120519 40 259 2.0 3.0 0.00 0.00 0.00 84 1020.5
20260502115514 39 291 2.0 5.0 0.00 0.00 0.00 85 1020.5
20260502115010 39 293 0.0 5.0 0.00 0.00 0.00 85 1020.4
20260502114507 39 324 3.0 5.0 0.00 0.00 0.00 85 1020.4
20260502114003 39 322 2.0 3.0 0.00 0.00 0.00 86 1020.3
20260502113501 39 314 1.0 3.0 0.00 0.00 0.00 86 1020.6
20260502113000 39 257 2.0 2.0 0.00 0.00 0.00 86 1020.3
20260502112457 39 243 1.0 2.0 0.00 0.00 0.00 86 1020.3
20260502111954 38 264 1.0 3.0 0.00 0.00 0.00 86 1020.2
20260502111451 38 234 0.0 1.0 0.00 0.00 0.00 86 1020.0
20260502110949 38 258 1.0 1.0 0.00 0.00 0.00 86 1020.0
20260502110446 38 231 0.0 0.0 0.00 0.00 0.00 86 1020.1
20260502105943 38 238 0.0 0.0 0.00 0.00 0.00 85 1020.0
20260502105441 38 235 0.0 0.0 0.00 0.00 0.00 85 1020.0
20260502104938 38 232 0.0 0.0 0.00 0.00 0.00 85 1019.9
20260502104435 38 235 0.0 1.0 0.00 0.00 0.00 85 1019.8
20260502103932 38 250 0.0 0.0 0.00 0.00 0.00 85 1019.6
20260502103430 39 255 0.0 0.0 0.00 0.00 0.00 85 1019.8
20260502102927 39 238 0.0 0.0 0.00 0.00 0.00 84 1019.8
20260502102424 39 245 0.0 0.0 0.00 0.00 0.00 84 1019.6
20260502101921 39 240 0.0 2.0 0.00 0.00 0.00 85 1019.5
20260502101419 39 260 0.0 1.0 0.00 0.00 0.00 85 1019.6
20260502100917 39 235 0.0 0.0 0.00 0.00 0.00 85 1019.7
20260502100416 39 198 0.0 1.0 0.00 0.00 0.00 86 1019.8
20260502091350 39 313 1.0 1.0 0.00 0.00 0.00 91 1019.6
20260502090848 39 27 1.0 2.0 0.00 0.00 0.00 91 1019.5
20260502090344 39 60 0.0 1.0 0.00 0.00 0.00 91 1019.5
20260502071239 39 270 2.0 5.0 0.00 0.00 0.00 81 1019.1
20260502070737 39 247 1.0 3.0 0.00 0.00 0.00 82 1018.9
20260502070234 39 254 2.0 5.0 0.00 0.00 0.00 83 1019.0
20260502065733 39 266 2.0 3.0 0.00 0.00 0.00 85 1019.1
20260502065230 38 257 3.0 3.0 0.00 0.00 0.00 88 1019.1
20260502064729 38 250 1.0 3.0 0.00 0.00 0.00 88 1019.2
20260502064226 38 247 2.0 3.0 0.00 0.00 0.00 87 1018.9
20260502063723 38 251 2.0 5.0 0.00 0.00 0.00 87 1019.2
20260502063221 38 252 3.0 3.0 0.00 0.00 0.00 87 1019.3
20260502062718 38 250 2.0 3.0 0.00 0.00 0.00 87 1019.4
20260502062216 38 235 2.0 2.0 0.00 0.00 0.00 87 1019.3
20260502061714 39 240 1.0 2.0 0.00 0.00 0.00 86 1019.0
20260502061211 39 247 3.0 5.0 0.00 0.00 0.00 85 1019.3
20260502060706 40 248 3.0 3.0 0.00 0.00 0.00 85 1019.3
20260502060203 40 249 2.0 2.0 0.00 0.00 0.00 84 1019.3
20260502055701 40 272 2.0 3.0 0.00 0.00 0.00 85 1019.3
20260502055158 40 248 1.0 2.0 0.00 0.00 0.00 86 1019.2
20260502054658 40 265 1.0 1.0 0.00 0.00 0.00 87 1019.3
20260502054154 40 263 2.0 2.0 0.00 0.00 0.00 87 1019.3
20260502053652 39 246 1.0 2.0 0.00 0.00 0.00 89 1019.4
20260502053148 39 260 0.0 2.0 0.00 0.00 0.00 90 1019.4
20260502052647 39 245 1.0 1.0 0.00 0.00 0.00 91 1019.6
20260502052144 39 242 1.0 1.0 0.00 0.00 0.00 92 1019.4
20260502051643 39 249 0.0 2.0 0.00 0.00 0.00 92 1019.5
20260502051140 39 234 0.0 0.0 0.00 0.00 0.00 92 1019.6
20260502050636 39 253 1.0 1.0 0.00 0.00 0.00 92 1019.5
20260502050133 39 245 1.0 2.0 0.00 0.00 0.00 93 1019.4
20260502045630 39 243 1.0 1.0 0.00 0.00 0.00 93 1019.4
20260502045127 39 263 1.0 1.0 0.00 0.00 0.00 93 1019.6
20260502044623 39 236 1.0 1.0 0.00 0.00 0.00 93 1019.7
20260502044120 39 229 0.0 0.0 0.00 0.00 0.00 93 1019.6
20260502043618 39 226 0.0 0.0 0.00 0.00 0.00 92 1019.5
20260502043109 39 222 0.0 1.0 0.00 0.00 0.00 91 1019.5
20260502042609 39 217 1.0 1.0 0.00 0.00 0.00 90 1019.4
20260502042106 39 223 1.0 1.0 0.00 0.00 0.00 89 1019.6
20260502041604 40 229 0.0 1.0 0.00 0.00 0.00 87 1019.4
20260502041101 41 233 0.0 1.0 0.00 0.00 0.00 86 1019.6
20260502040557 41 239 0.0 1.0 0.00 0.00 0.00 86 1019.5
20260502040055 41 240 1.0 2.0 0.00 0.00 0.00 85 1019.4
20260502035550 42 243 1.0 2.0 0.00 0.54 0.54 85 1019.5
20260502035048 42 253 1.0 1.0 0.00 0.54 0.54 84 1019.2
20260502034546 42 297 1.0 2.0 0.00 0.54 0.54 85 1019.3
20260502034044 42 243 1.0 2.0 0.00 0.54 0.54 86 1019.1
20260502033542 42 240 0.0 2.0 0.00 0.54 0.54 87 1019.4
20260502033039 42 246 1.0 1.0 0.00 0.54 0.54 87 1019.4
20260502032535 42 240 0.0 1.0 0.00 0.54 0.54 87 1019.5
20260502032032 42 249 1.0 2.0 0.00 0.54 0.54 87 1019.4
20260502031530 42 244 0.0 1.0 0.00 0.54 0.54 88 1019.2
20260502031027 42 232 0.0 1.0 0.00 0.54 0.54 89 1019.4
20260502030526 42 236 0.0 1.0 0.00 0.54 0.54 89 1019.2
20260502030023 42 242 1.0 1.0 0.00 0.54 0.54 89 1019.1
20260502025520 42 237 0.0 1.0 0.00 0.54 0.54 89 1019.2
20260502025019 42 239 1.0 1.0 0.00 0.54 0.54 88 1019.2
20260502024515 42 250 1.0 1.0 0.00 0.54 0.54 87 1019.3
20260502024014 42 252 1.0 1.0 0.00 0.54 0.54 87 1019.1
20260502023511 42 244 0.0 0.0 0.00 0.54 0.54 87 1019.0
20260502023008 42 251 0.0 0.0 0.00 0.54 0.54 87 1019.0
20260502022505 42 225 0.0 0.0 0.00 0.54 0.54 87 1019.1
20260502022003 42 232 0.0 0.0 0.00 0.54 0.54 87 1018.8
20260502021459 42 232 0.0 0.0 0.00 0.54 0.54 86 1019.0
20260502020956 42 236 0.0 0.0 0.00 0.54 0.54 86 1018.9
20260502020454 42 231 0.0 0.0 0.00 0.54 0.54 86 1019.0
20260502015950 42 227 0.0 0.0 0.00 0.54 0.54 86 1018.9
20260502015449 42 256 0.0 0.0 0.00 0.54 0.54 85 1019.1
20260502014945 42 244 0.0 1.0 0.00 0.54 0.54 86 1019.1
20260502014442 42 247 0.0 1.0 0.00 0.54 0.54 86 1018.8
20260502013938 41 258 0.0 1.0 0.00 0.54 0.54 86 1018.7
20260502013434 41 234 0.0 0.0 0.00 0.54 0.54 86 1018.6
20260502012930 41 247 0.0 1.0 0.00 0.54 0.54 85 1018.5
20260502012428 41 233 0.0 1.0 0.00 0.54 0.54 85 1018.4
20260502011926 41 229 0.0 0.0 0.00 0.54 0.54 85 1018.4
20260502011422 41 259 0.0 0.0 0.00 0.54 0.54 85 1018.2
20260502010919 42 227 0.0 0.0 0.00 0.54 0.54 85 1018.2
20260502010415 42 264 0.0 1.0 0.00 0.54 0.54 84 1018.3
20260502005912 42 231 0.0 1.0 0.00 0.54 0.54 84 1018.2
20260502005410 42 274 1.0 3.0 0.00 0.54 0.54 84 1018.2
20260502004908 42 229 1.0 5.0 0.00 0.54 0.54 84 1018.3
20260502004403 42 305 3.0 3.0 0.00 0.54 0.54 84 1018.2
20260502003901 42 342 1.0 5.0 0.00 0.54 0.54 84 1017.9
20260502003358 43 326 2.0 3.0 0.00 0.54 0.54 82 1018.1
20260502002854 43 338 3.0 6.0 0.00 0.54 0.54 82 1018.2
20260502002351 43 332 3.0 6.0 0.07 0.54 0.54 82 1018.1
20260502001848 43 311 2.0 9.0 0.21 0.54 0.54 81 1018.0
20260502001346 44 300 4.0 10.0 0.14 0.53 0.53 81 1018.1
20260502000844 45 247 6.0 7.0 0.00 0.51 0.51 85 1017.9
20260502000342 45 234 2.0 2.0 0.00 0.51 0.51 85 1017.6
20260501235838 45 231 1.0 1.0 0.00 0.51 0.51 84 1017.5
20260501235333 45 237 1.0 2.0 0.00 0.51 0.51 84 1017.7
20260501234828 45 233 1.0 2.0 0.00 0.51 0.51 84 1017.5
20260501234326 45 230 3.0 3.0 0.00 0.51 0.51 82 1017.5
20260501233825 46 216 3.0 5.0 0.00 0.51 0.51 82 1017.5
20260501233321 46 212 3.0 5.0 0.00 0.51 0.51 82 1017.4
20260501232817 46 213 4.0 5.0 0.00 0.51 0.51 83 1017.5
20260501232315 46 209 3.0 5.0 0.00 0.51 0.51 82 1017.5
20260501231812 46 211 3.0 5.0 0.00 0.51 0.51 83 1017.4
20260501231310 46 234 3.0 3.0 0.00 0.51 0.51 82 1017.5
20260501230808 46 221 3.0 5.0 0.00 0.51 0.51 83 1017.4
20260501230306 47 238 3.0 5.0 0.00 0.51 0.51 80 1017.4
20260501225803 47 200 4.0 6.0 0.00 0.51 0.51 79 1017.5
20260501225301 47 240 3.0 5.0 0.00 0.51 0.51 80 1017.6
20260501224757 47 237 3.0 5.0 0.00 0.51 0.51 80 1017.7
20260501224255 47 216 3.0 5.0 0.00 0.51 0.51 80 1017.7
20260501223750 46 209 3.0 5.0 0.00 0.51 0.51 81 1017.6
20260501223247 46 231 2.0 3.0 0.00 0.51 0.51 82 1017.5
20260501222743 46 216 3.0 6.0 0.00 0.51 0.51 83 1017.4
20260501222240 46 211 3.0 5.0 0.00 0.51 0.51 82 1017.5